SBI728 UWGG-UUDD

Flight info

Callsign SBI728
Flight time 0h 44m
Altitude 30000
Route LARNO2U LARNO P985 OSPOM T787 URAGO URAGO3P
Aircraft A320/M-SDE3FGHIRWY/LB1

Departure

Time 2026-04-24 13:52
Airport Nizhny Novgorod / Strigino International Airport (UWGG)

Arrival

Time 2026-04-24 14:36
Airport Domodedovo International Airport (UUDD)
Time Latitude Longitude Altitude Speed Heading
2026-04-24 13:41 56.22750 43.79191 260 ft 0 kts 112°
2026-04-24 13:45 56.22754 43.79172 260 ft 2 kts 110°
2026-04-24 13:45 56.22760 43.79145 260 ft 2 kts 107°
2026-04-24 13:46 56.22764 43.79116 260 ft 2 kts 92°
2026-04-24 13:46 56.22759 43.79091 260 ft 2 kts 13°
2026-04-24 13:46 56.22743 43.79084 260 ft 2 kts 17°
2026-04-24 13:46 56.22728 43.79076 260 ft 1 kts 15°
2026-04-24 13:47 56.22724 43.79074 260 ft 0 kts 14°
2026-04-24 13:47 56.22752 43.79087 260 ft 9 kts 14°
2026-04-24 13:48 56.22826 43.79115 260 ft 12 kts 11°
2026-04-24 13:48 56.22906 43.79056 260 ft 14 kts 327°
2026-04-24 13:48 56.23007 43.79056 260 ft 16 kts
2026-04-24 13:48 56.23123 43.79095 260 ft 18 kts 12°
2026-04-24 13:49 56.23253 43.79144 261 ft 20 kts 12°
2026-04-24 13:49 56.23395 43.79197 261 ft 22 kts 13°
2026-04-24 13:49 56.23549 43.79237 261 ft 23 kts
2026-04-24 13:49 56.23712 43.79252 261 ft 24 kts
2026-04-24 13:50 56.23863 43.79264 261 ft 16 kts
2026-04-24 13:50 56.23977 43.79272 261 ft 12 kts
2026-04-24 13:50 56.24066 43.79236 261 ft 15 kts 324°
2026-04-24 13:50 56.24109 43.79115 261 ft 9 kts 293°
2026-04-24 13:51 56.24113 43.79006 263 ft 10 kts 221°
2026-04-24 13:51 56.24013 43.78960 262 ft 31 kts 191°
2026-04-24 13:51 56.23526 43.78775 258 ft 107 kts 192°
2026-04-24 13:51 56.22612 43.78443 259 ft 160 kts 191°
2026-04-24 13:52 56.21433 43.78015 639 ft 176 kts 193°
2026-04-24 13:52 56.20241 43.77536 1420 ft 175 kts 193°
2026-04-24 13:52 56.19050 43.76840 1898 ft 189 kts 204°
2026-04-24 13:52 56.17788 43.75761 2200 ft 213 kts 206°
2026-04-24 13:53 56.16411 43.74503 2598 ft 237 kts 206°
2026-04-24 13:53 56.14867 43.73100 3044 ft 259 kts 204°
2026-04-24 13:53 56.13239 43.71644 3930 ft 262 kts 204°
2026-04-24 13:53 56.11622 43.70212 4948 ft 261 kts 204°
2026-04-24 13:54 56.09973 43.68772 5912 ft 263 kts 204°
2026-04-24 13:54 56.08321 43.67344 6786 ft 265 kts 204°
2026-04-24 13:54 56.06649 43.65909 7659 ft 268 kts 204°
2026-04-24 13:54 56.04956 43.64462 8545 ft 271 kts 204°
2026-04-24 13:55 56.03248 43.62985 9409 ft 275 kts 206°
2026-04-24 13:55 56.01667 43.61027 10182 ft 280 kts 220°
2026-04-24 13:55 56.00316 43.58452 10819 ft 292 kts 227°
2026-04-24 13:55 55.98934 43.55600 11063 ft 315 kts 227°
2026-04-24 13:56 55.97471 43.52588 11610 ft 325 kts 227°
2026-04-24 13:56 55.96011 43.49583 12339 ft 329 kts 227°
2026-04-24 13:56 55.94474 43.46424 13115 ft 332 kts 227°
2026-04-24 13:56 55.92969 43.43338 13780 ft 336 kts 227°
2026-04-24 13:57 55.91429 43.40191 14427 ft 339 kts 227°
2026-04-24 13:57 55.89868 43.37012 15070 ft 342 kts 227°
2026-04-24 13:57 55.88294 43.33810 15727 ft 345 kts 227°
2026-04-24 13:57 55.86709 43.30586 16383 ft 348 kts 227°
2026-04-24 13:58 55.85107 43.27337 17042 ft 351 kts 227°
2026-04-24 13:58 55.83487 43.24062 17672 ft 354 kts 227°
2026-04-24 13:58 55.81853 43.20756 18222 ft 357 kts 227°
2026-04-24 13:58 55.80325 43.17225 18760 ft 362 kts 236°
2026-04-24 13:59 55.79186 43.13236 19315 ft 366 kts 247°
2026-04-24 13:59 55.78445 43.08881 19859 ft 370 kts 253°
2026-04-24 13:59 55.77788 43.04447 20407 ft 372 kts 253°
2026-04-24 13:59 55.77118 42.99988 20935 ft 375 kts 253°
2026-04-24 14:00 55.76440 42.95503 21454 ft 377 kts 253°
2026-04-24 14:00 55.75763 42.91042 21966 ft 380 kts 253°
2026-04-24 14:00 55.75075 42.86503 22478 ft 382 kts 253°
2026-04-24 14:00 55.74380 42.81938 22966 ft 385 kts 253°
2026-04-24 14:01 55.73675 42.77341 23394 ft 387 kts 252°
2026-04-24 14:01 55.72960 42.72717 23778 ft 390 kts 252°
2026-04-24 14:01 55.72623 42.70565 23953 ft 391 kts 252°
2026-04-24 14:01 55.71896 42.65896 24325 ft 394 kts 252°
2026-04-24 14:02 55.71167 42.61181 24706 ft 397 kts 252°
2026-04-24 14:02 55.70436 42.56438 25090 ft 399 kts 252°
2026-04-24 14:02 55.69700 42.51676 25471 ft 402 kts 253°
2026-04-24 14:02 55.68957 42.46880 25842 ft 405 kts 252°
2026-04-24 14:03 55.68206 42.42053 26208 ft 407 kts 252°
2026-04-24 14:03 55.67447 42.37207 26575 ft 410 kts 253°
2026-04-24 14:03 55.66691 42.32397 26917 ft 412 kts 253°
2026-04-24 14:03 55.65915 42.27485 27263 ft 415 kts 252°
2026-04-24 14:04 55.65132 42.22547 27612 ft 418 kts 252°
2026-04-24 14:04 55.64344 42.17588 27983 ft 420 kts 253°
2026-04-24 14:04 55.63548 42.12587 28287 ft 423 kts 252°
2026-04-24 14:04 55.62745 42.07554 28581 ft 427 kts 253°
2026-04-24 14:05 55.61931 42.02476 28921 ft 430 kts 253°
2026-04-24 14:05 55.61111 41.97387 29264 ft 432 kts 253°
2026-04-24 14:05 55.60281 41.92268 29463 ft 433 kts 253°
2026-04-24 14:05 55.59465 41.87236 29481 ft 418 kts 253°
2026-04-24 14:06 55.58660 41.77274 29482 ft 408 kts 268°
2026-04-24 14:06 55.58555 41.67331 29489 ft 407 kts 268°
2026-04-24 14:07 55.58416 41.57326 29493 ft 407 kts 268°
2026-04-24 14:07 55.58264 41.47339 29500 ft 406 kts 268°
2026-04-24 14:08 55.58109 41.37336 29497 ft 407 kts 269°
2026-04-24 14:08 55.57943 41.27331 29418 ft 406 kts 269°
2026-04-24 14:09 55.57862 41.22401 29116 ft 396 kts 269°
2026-04-24 14:09 55.57782 41.17576 28821 ft 390 kts 268°
2026-04-24 14:09 55.57689 41.12810 28528 ft 387 kts 265°
2026-04-24 14:09 55.57190 41.08157 28254 ft 384 kts 256°
2026-04-24 14:10 55.56769 41.05135 28063 ft 382 kts 256°
2026-04-24 14:10 55.55925 40.99057 27687 ft 380 kts 256°
2026-04-24 14:10 55.55300 40.94541 27415 ft 378 kts 256°
2026-04-24 14:10 55.54680 40.90050 27149 ft 376 kts 255°
2026-04-24 14:11 55.54068 40.85648 26865 ft 374 kts 255°
2026-04-24 14:11 55.53442 40.81196 26590 ft 371 kts 254°
2026-04-24 14:11 55.52199 40.72394 26258 ft 371 kts 255°
2026-04-24 14:12 55.51566 40.67915 25994 ft 370 kts 255°
2026-04-24 14:12 55.50953 40.63580 25738 ft 368 kts 255°
2026-04-24 14:12 55.50330 40.59213 25475 ft 366 kts 253°
2026-04-24 14:12 55.49708 40.54878 25215 ft 364 kts 254°
2026-04-24 14:13 55.49083 40.50557 24964 ft 361 kts 252°
2026-04-24 14:13 55.48467 40.46285 24710 ft 358 kts 253°
2026-04-24 14:13 55.47853 40.42033 24454 ft 356 kts 254°
2026-04-24 14:13 55.47246 40.37814 24209 ft 354 kts 252°
2026-04-24 14:14 55.46643 40.33628 23960 ft 352 kts 253°
2026-04-24 14:14 55.46038 40.29475 23713 ft 351 kts 252°
2026-04-24 14:14 55.44824 40.21175 23244 ft 347 kts 252°
2026-04-24 14:15 55.44226 40.17063 22981 ft 345 kts 252°
2026-04-24 14:15 55.43627 40.12974 22687 ft 344 kts 252°
2026-04-24 14:15 55.43028 40.08902 22408 ft 343 kts 252°
2026-04-24 14:15 55.42431 40.04844 22124 ft 342 kts 252°
2026-04-24 14:16 55.41844 40.00854 21846 ft 341 kts 252°
2026-04-24 14:16 55.41257 39.96854 21569 ft 339 kts 252°
2026-04-24 14:16 55.40657 39.92810 21299 ft 338 kts 252°
2026-04-24 14:17 55.39465 39.84844 20743 ft 335 kts 252°
2026-04-24 14:17 55.38873 39.80883 20483 ft 334 kts 252°
2026-04-24 14:17 55.37690 39.73010 19957 ft 332 kts 252°
2026-04-24 14:18 55.37102 39.69099 19695 ft 331 kts 252°
2026-04-24 14:18 55.36511 39.65201 19438 ft 329 kts 252°
2026-04-24 14:18 55.35918 39.61309 19178 ft 328 kts 252°
2026-04-24 14:18 55.35329 39.57446 18922 ft 327 kts 252°
2026-04-24 14:19 55.34938 39.54883 18756 ft 327 kts 252°
2026-04-24 14:19 55.34152 39.49750 18431 ft 325 kts 252°
2026-04-24 14:19 55.33574 39.45970 18178 ft 325 kts 253°
2026-04-24 14:19 55.32989 39.42151 17947 ft 322 kts 253°
2026-04-24 14:20 55.32410 39.38378 17580 ft 319 kts 254°
2026-04-24 14:20 55.31832 39.34629 17182 ft 317 kts 254°
2026-04-24 14:20 55.31257 39.30901 16798 ft 315 kts 254°
2026-04-24 14:20 55.30685 39.27202 16428 ft 314 kts 254°
2026-04-24 14:21 55.30112 39.23515 16051 ft 312 kts 254°
2026-04-24 14:21 55.29544 39.19849 15683 ft 311 kts 255°
2026-04-24 14:21 55.28975 39.16185 15315 ft 310 kts 255°
2026-04-24 14:21 55.28405 39.12534 14954 ft 310 kts 255°
2026-04-24 14:22 55.27835 39.08890 14589 ft 309 kts 255°
2026-04-24 14:22 55.27264 39.05260 14226 ft 309 kts 256°
2026-04-24 14:22 55.26124 38.98005 13499 ft 308 kts 257°
2026-04-24 14:23 55.25551 38.94379 13107 ft 308 kts 256°
2026-04-24 14:23 55.24983 38.90776 12725 ft 306 kts 256°
2026-04-24 14:23 55.24427 38.87286 12367 ft 298 kts 256°
2026-04-24 14:23 55.23869 38.83791 12007 ft 297 kts 256°
2026-04-24 14:24 55.23312 38.80314 11641 ft 296 kts 258°
2026-04-24 14:24 55.22758 38.76846 11274 ft 295 kts 256°
2026-04-24 14:24 55.22206 38.73397 10908 ft 294 kts 258°
2026-04-24 14:24 55.21657 38.69956 10535 ft 293 kts 258°
2026-04-24 14:25 55.21283 38.67631 10282 ft 293 kts 257°
2026-04-24 14:25 55.20563 38.63165 10076 ft 281 kts 257°
2026-04-24 14:25 55.20037 38.59904 9832 ft 276 kts 257°
2026-04-24 14:25 55.19518 38.56673 9488 ft 276 kts 257°
2026-04-24 14:26 55.18998 38.53434 9082 ft 276 kts 258°
2026-04-24 14:26 55.18476 38.50199 8701 ft 275 kts 258°
2026-04-24 14:26 55.18131 38.48067 8445 ft 275 kts 258°
2026-04-24 14:26 55.17608 38.44857 8054 ft 274 kts 258°
2026-04-24 14:27 55.17083 38.41646 7666 ft 274 kts 258°
2026-04-24 14:27 55.16562 38.38434 7252 ft 274 kts 259°
2026-04-24 14:27 55.16042 38.35235 6841 ft 275 kts 259°
2026-04-24 14:27 55.15516 38.32027 6507 ft 271 kts 258°
2026-04-24 14:28 55.15000 38.28891 6030 ft 264 kts 258°
2026-04-24 14:28 55.14493 38.25840 5600 ft 260 kts 259°
2026-04-24 14:28 55.13998 38.22871 5232 ft 248 kts 259°
2026-04-24 14:28 55.13527 38.20065 4944 ft 236 kts 259°
2026-04-24 14:29 55.13137 38.17330 4793 ft 226 kts 271°
2026-04-24 14:29 55.13350 38.14733 4665 ft 216 kts 298°
2026-04-24 14:29 55.14198 38.12652 4531 ft 210 kts 322°
2026-04-24 14:29 55.15468 38.11468 4405 ft 208 kts 346°
2026-04-24 14:30 55.16890 38.11007 4272 ft 208 kts 349°
2026-04-24 14:30 55.18313 38.10564 4138 ft 206 kts 349°
2026-04-24 14:30 55.19718 38.10118 4003 ft 204 kts 349°
2026-04-24 14:30 55.21092 38.09679 3867 ft 196 kts 349°
2026-04-24 14:31 55.22408 38.09263 3735 ft 189 kts 349°
2026-04-24 14:31 55.23687 38.08850 3610 ft 183 kts 346°
2026-04-24 14:31 55.24818 38.07955 3501 ft 176 kts 327°
2026-04-24 14:31 55.25788 38.06772 3359 ft 164 kts 327°
2026-04-24 14:32 55.26702 38.05673 3229 ft 155 kts 327°
2026-04-24 14:32 55.27571 38.04628 3109 ft 149 kts 328°
2026-04-24 14:32 55.28421 38.03610 3039 ft 147 kts 328°
2026-04-24 14:32 55.29264 38.02603 2982 ft 145 kts 328°
2026-04-24 14:33 55.30067 38.01643 2866 ft 136 kts 328°
2026-04-24 14:33 55.30837 38.00723 2688 ft 132 kts 328°
2026-04-24 14:33 55.31595 37.99818 2517 ft 131 kts 328°
2026-04-24 14:33 55.32345 37.98922 2337 ft 130 kts 328°
2026-04-24 14:34 55.33083 37.98040 2161 ft 130 kts 328°
2026-04-24 14:34 55.33830 37.97146 1973 ft 129 kts 328°
2026-04-24 14:34 55.34574 37.96256 1792 ft 129 kts 328°
2026-04-24 14:34 55.35310 37.95374 1622 ft 129 kts 328°
2026-04-24 14:35 55.36056 37.94478 1417 ft 131 kts 327°
2026-04-24 14:35 55.36793 37.93561 1235 ft 129 kts 328°
2026-04-24 14:35 55.37538 37.92677 1061 ft 129 kts 327°
2026-04-24 14:35 55.38283 37.91790 876 ft 128 kts 328°
2026-04-24 14:36 55.39030 37.90892 715 ft 128 kts 328°
2026-04-24 14:36 55.39776 37.90007 577 ft 129 kts 329°
2026-04-24 14:36 55.40386 37.89294 569 ft 66 kts 326°
2026-04-24 14:36 55.40648 37.88984 572 ft 37 kts 325°
2026-04-24 14:37 55.40826 37.88797 576 ft 27 kts 341°
2026-04-24 14:37 55.40964 37.88754 577 ft 16 kts 354°
2026-04-24 14:37 55.41053 37.88815 579 ft 15 kts 86°
2026-04-24 14:37 55.40985 37.88930 576 ft 13 kts 147°
2026-04-24 14:38 55.40911 37.89016 576 ft 12 kts 146°
2026-04-24 14:38 55.40837 37.89105 573 ft 13 kts 144°
2026-04-24 14:38 55.40785 37.89231 573 ft 14 kts 108°
2026-04-24 14:38 55.40801 37.89412 572 ft 17 kts 58°
2026-04-24 14:39 55.40882 37.89584 570 ft 19 kts 54°
2026-04-24 14:39 55.40965 37.89795 572 ft 16 kts 56°
2026-04-24 14:39 55.41018 37.89874 569 ft 8 kts 344°
2026-04-24 14:39 55.41061 37.89816 575 ft 7 kts 323°
2026-04-24 14:40 55.41092 37.89803 573 ft 4 kts 33°
2026-04-24 14:40 55.41111 37.89853 572 ft 0 kts 54°